Weather Roundup
Issued by NWS Chicago, IL

Home | Current Version | Previous Version | Text Only | Print | Product List | Glossary On
Versions: 1 2 3 4 5 6 7 8 9 10 11 12 13 14 15 16 17 18 19 20 21 22 23 24 25 26 27 28 29 30 31 32 33 34 35 36 37 38 39 40 41 42 43 44 45 46 47 48 49 50
000
NZUS59 KLOT 030821
HRRLOT

CHICAGO AREA WEATHER ROUNDUP
NATIONAL WEATHER SERVICE CHICAGO/ROMEOVILLE IL
300 AM CDT MON AUG 03 2015

NOTE: "FAIR" INDICATES FEW OR NO CLOUDS BELOW 12,000 FEET WITH NO
SIGNIFICANT WEATHER AND/OR OBSTRUCTIONS TO VISIBILITY.

* THESE STATIONS ARE NOT UNDER NWS QUALITY CONTROL. THEY ALSO MAY NOT
  REPORT WEATHER SUCH AS PRECIPITATION OR FOG.

ILZ005-006-012>014-019>023-030900-
NORTHEAST ILLINOIS

CITY           SKY/WX    TMP DP  RH WIND       PRES   REMARKS
OHARE          MOCLDY    68  66  93 W6        29.75S
MIDWAY         MOCLDY    69  65  86 W6        29.74S
AURORA         PTCLDY    67  64  90 CALM      29.77S
LANSING*       MOCLDY    65  64  97 CALM      29.75S
JOLIET*        CLEAR     68  66  94 CALM      29.76S
WAUKEGAN       MOCLDY    67  65  93 W5        29.74S
DUPAGE AIRPORT MOCLDY    67  65  93 CALM      29.76S
WHEELING       NOT AVBL
KANKAKEE*      CLEAR     69  64  85 CALM      29.76S
MORRIS*        CLEAR     69  64  83 CALM      29.75F
LEWIS AIRPORT* PTCLDY    66  65  97 CALM      29.76F
NORTHERLY IS     N/A     70  64  81 W7          N/A
$$

WIZ051-052-058>065-066-070>072-030900-
SOUTHEAST WISCONSIN

CITY           SKY/WX    TMP DP  RH WIND       PRES   REMARKS
MILWAUKEE      PTCLDY    67  58  72 NW6       29.74S
KENOSHA*       CLEAR     63  61  93 W3        29.75S
RACINE*        CLEAR     65  60  84 W6        29.76S
BURLINGTON     CLEAR     59  57  93 NW3       29.76S
WAUKESHA       PTCLDY    63  59  88 W8        29.77S
WEST BEND      PTCLDY    61  59  94 CALM      29.75F FOG
$$

INZ001>003-010>013-019-020-030900-
NORTHWEST INDIANA

CITY           SKY/WX    TMP DP  RH WIND       PRES   REMARKS
GARY*          MOCLDY    68  67  96 W3        29.75R
MICHIGAN CITY* NOT AVBL
RENSSELAER*    NOT AVBL
$$

LMZ740>746-030900-
SOUTHERN LAKE MICHIGAN

STATION/POSITION TIME  SKY/WX   TEMP WIND        PRES    VSBY
                                AIR  DIR/SP/G
                 (UTC)          (F)  (DEG/KT/KT) (MB)    (MI)
HARRISON CRIB    0800            69  280/  9/ 10   N/A
BURNHAM HARBOR   0800            70  250/  6/  8   N/A
CALUMET HARBOR   0700            68  250/  3/  5   N/A
BURNS HARBOR     0700            71  280/  9/ 10 1007.8S
MICHIGAN CITY    0800            70  280/  8/  9   N/A
$$

ABBREVIATIONS USED IN REMARKS
   TC - TEMPERATURE IN CELSIUS
  WCI - WIND CHILL INDEX
   HX - HEAT INDEX
  VSB - VISIBILITY
$$


USA.gov is the U.S. government's official web portal to all federal, state and local government web resources and services.